Time,TemperatureF,DewpointF,PressureIn,WindDirection,WindDirectionDegrees,WindSpeedMPH,WindSpeedGustMPH,Humidity,HourlyPrecipIn,Conditions,Clouds,dailyrainin,SoftwareType,DateUTC
2013-01-26 00:01:00,12.5,8.1,30.06,NW,324,0.0,0.0,82,0.00,,,0.00,LWC V2.10 B1813,2013-01-26 05:01:00,
2013-01-26 00:11:00,12.4,8.2,30.06,NW,324,0.0,0.0,83,0.00,,,0.00,LWC V2.10 B1813,2013-01-26 05:11:00,
2013-01-26 00:16:00,12.4,8.2,30.06,NW,323,0.0,0.0,83,0.00,,,0.00,LWC V2.10 B1813,2013-01-26 05:16:00,
2013-01-26 00:21:00,12.4,8.2,30.06,NW,324,0.0,0.0,83,0.00,,,0.00,LWC V2.10 B1813,2013-01-26 05:21:00,
2013-01-26 00:26:00,12.4,8.5,30.05,NW,324,0.0,0.0,84,0.00,,,0.00,LWC V2.10 B1813,2013-01-26 05:26:00,
2013-01-26 00:31:00,12.3,8.4,30.05,NW,324,0.0,0.0,84,0.00,,,0.00,LWC V2.10 B1813,2013-01-26 05:31:00,
2013-01-26 00:36:00,12.2,8.0,30.05,NW,324,0.0,0.0,83,0.00,,,0.00,LWC V2.10 B1813,2013-01-26 05:36:00,
2013-01-26 00:41:00,12.2,8.0,30.05,NW,324,0.0,0.0,83,0.00,,,0.00,LWC V2.10 B1813,2013-01-26 05:41:00,
2013-01-26 00:46:00,12.2,8.0,30.05,NW,324,0.0,0.0,83,0.00,,,0.00,LWC V2.10 B1813,2013-01-26 05:46:00,
2013-01-26 00:51:00,12.1,8.2,30.05,NW,324,0.0,0.0,84,0.00,,,0.00,LWC V2.10 B1813,2013-01-26 05:51:00,
2013-01-26 00:56:00,11.9,8.0,30.05,NW,323,0.0,0.0,84,0.00,,,0.00,LWC V2.10 B1813,2013-01-26 05:56:00,
2013-01-26 01:01:00,11.7,8.1,30.05,NW,324,0.0,0.0,85,0.00,,,0.00,LWC V2.10 B1813,2013-01-26 06:01:00,
2013-01-26 01:06:00,11.7,8.3,30.06,NW,324,0.0,0.0,86,0.00,,,0.00,LWC V2.10 B1813,2013-01-26 06:06:00,
2013-01-26 01:11:00,11.5,8.1,30.06,NW,323,0.0,0.0,86,0.00,,,0.00,LWC V2.10 B1813,2013-01-26 06:11:00,
2013-01-26 01:16:00,11.4,8.0,30.06,NW,324,0.0,0.0,86,0.00,,,0.00,LWC V2.10 B1813,2013-01-26 06:16:00,
2013-01-26 01:21:00,11.4,8.0,30.05,NW,323,0.0,0.0,86,0.00,,,0.00,LWC V2.10 B1813,2013-01-26 06:21:00,
2013-01-26 01:26:00,11.3,7.9,30.05,NW,323,0.0,0.0,86,0.00,,,0.00,LWC V2.10 B1813,2013-01-26 06:26:00,
2013-01-26 01:31:00,11.2,7.8,30.05,NW,323,0.0,0.0,86,0.00,,,0.00,LWC V2.10 B1813,2013-01-26 06:31:00,
2013-01-26 01:36:00,11.0,7.7,30.05,NW,318,0.0,0.0,86,0.00,,,0.00,LWC V2.10 B1813,2013-01-26 06:36:00,
2013-01-26 01:41:00,10.9,7.8,30.05,NW,318,0.0,1.0,87,0.00,,,0.00,LWC V2.10 B1813,2013-01-26 06:41:00,
2013-01-26 01:46:00,10.9,7.6,30.06,WNW,302,0.0,0.0,86,0.00,,,0.00,LWC V2.10 B1813,2013-01-26 06:46:00,
2013-01-26 01:51:00,10.9,7.3,30.05,WNW,302,0.0,0.0,85,0.00,,,0.00,LWC V2.10 B1813,2013-01-26 06:51:00,
2013-01-26 01:56:00,10.7,7.4,30.05,WNW,301,0.0,1.0,86,0.00,,,0.00,LWC V2.10 B1813,2013-01-26 06:56:00,
2013-01-26 02:01:00,10.7,7.4,30.05,WNW,303,0.0,1.0,86,0.00,,,0.00,LWC V2.10 B1813,2013-01-26 07:01:00,
2013-01-26 02:06:00,10.6,7.0,30.05,WNW,297,1.0,1.0,85,0.00,,,0.00,LWC V2.10 B1813,2013-01-26 07:06:00,
2013-01-26 02:11:00,10.4,6.8,30.05,WNW,296,1.0,1.0,85,0.00,,,0.00,LWC V2.10 B1813,2013-01-26 07:11:00,
2013-01-26 02:16:00,10.3,6.4,30.05,WNW,297,0.0,0.0,84,0.00,,,0.00,LWC V2.10 B1813,2013-01-26 07:16:00,
2013-01-26 02:21:00,10.2,6.3,30.04,WNW,297,0.0,1.0,84,0.00,,,0.00,LWC V2.10 B1813,2013-01-26 07:21:00,
2013-01-26 02:26:00,10.0,6.2,30.04,WNW,296,0.0,0.0,84,0.00,,,0.00,LWC V2.10 B1813,2013-01-26 07:26:00,
2013-01-26 02:31:00,10.0,6.2,30.04,NW,305,0.0,2.0,84,0.00,,,0.00,LWC V2.10 B1813,2013-01-26 07:31:00,
2013-01-26 02:36:00,10.0,6.2,30.04,WNW,289,0.0,0.0,84,0.00,,,0.00,LWC V2.10 B1813,2013-01-26 07:36:00,
2013-01-26 02:41:00,9.8,6.2,30.04,West,269,0.0,1.0,85,0.00,,,0.00,LWC V2.10 B1813,2013-01-26 07:41:00,
2013-01-26 02:46:00,9.6,6.0,30.04,West,268,0.0,0.0,85,0.00,,,0.00,LWC V2.10 B1813,2013-01-26 07:46:00,
2013-01-26 02:51:00,9.4,6.1,30.04,West,269,0.0,0.0,86,0.00,,,0.00,LWC V2.10 B1813,2013-01-26 07:51:00,
2013-01-26 02:56:00,9.2,5.9,30.04,West,269,0.0,1.0,86,0.00,,,0.00,LWC V2.10 B1813,2013-01-26 07:56:00,
2013-01-26 03:01:00,9.0,5.7,30.04,West,279,0.0,1.0,86,0.00,,,0.00,LWC V2.10 B1813,2013-01-26 08:01:00,
2013-01-26 03:06:00,8.8,5.5,30.04,West,279,0.0,1.0,86,0.00,,,0.00,LWC V2.10 B1813,2013-01-26 08:06:00,
2013-01-26 03:11:00,8.8,5.5,30.04,WNW,291,1.0,1.0,86,0.00,,,0.00,LWC V2.10 B1813,2013-01-26 08:11:00,
2013-01-26 03:16:00,8.6,5.3,30.04,WNW,287,1.0,1.0,86,0.00,,,0.00,LWC V2.10 B1813,2013-01-26 08:16:00,
2013-01-26 03:21:00,8.4,5.3,30.04,West,279,1.0,1.0,87,0.00,,,0.00,LWC V2.10 B1813,2013-01-26 08:21:00,
2013-01-26 03:26:00,8.2,5.1,30.03,WNW,290,1.0,1.0,87,0.00,,,0.00,LWC V2.10 B1813,2013-01-26 08:26:00,
2013-01-26 03:31:00,8.1,5.0,30.04,WNW,294,0.0,1.0,87,0.00,,,0.00,LWC V2.10 B1813,2013-01-26 08:31:00,
2013-01-26 03:36:00,7.9,4.9,30.04,WNW,287,1.0,2.0,87,0.00,,,0.00,LWC V2.10 B1813,2013-01-26 08:36:00,
2013-01-26 03:41:00,7.8,4.8,30.03,West,274,1.0,2.0,87,0.00,,,0.00,LWC V2.10 B1813,2013-01-26 08:41:00,
2013-01-26 03:46:00,8.0,4.9,30.03,WNW,301,1.0,2.0,87,0.00,,,0.00,LWC V2.10 B1813,2013-01-26 08:46:00,
2013-01-26 03:51:00,8.0,4.9,30.03,WNW,282,1.0,1.0,87,0.00,,,0.00,LWC V2.10 B1813,2013-01-26 08:51:00,
2013-01-26 03:56:00,8.0,4.9,30.03,NW,306,1.0,2.0,87,0.00,,,0.00,LWC V2.10 B1813,2013-01-26 08:56:00,
2013-01-26 04:01:00,7.9,4.9,30.03,WNW,291,0.0,1.0,87,0.00,,,0.00,LWC V2.10 B1813,2013-01-26 09:01:00,
2013-01-26 04:06:00,7.7,4.7,30.03,WNW,283,1.0,1.0,87,0.00,,,0.00,LWC V2.10 B1813,2013-01-26 09:06:00,
2013-01-26 04:11:00,7.7,4.7,30.04,WNW,300,1.0,2.0,87,0.00,,,0.00,LWC V2.10 B1813,2013-01-26 09:11:00,
2013-01-26 04:16:00,7.8,4.8,30.03,WNW,303,1.0,3.0,87,0.00,,,0.00,LWC V2.10 B1813,2013-01-26 09:16:00,
2013-01-26 04:21:00,8.1,5.0,30.03,NW,308,0.0,1.0,87,0.00,,,0.00,LWC V2.10 B1813,2013-01-26 09:21:00,
2013-01-26 04:26:00,8.1,4.8,30.03,NW,307,1.0,1.0,86,0.00,,,0.00,LWC V2.10 B1813,2013-01-26 09:26:00,
2013-01-26 04:31:00,8.0,4.7,30.03,NW,321,0.0,1.0,86,0.00,,,0.00,LWC V2.10 B1813,2013-01-26 09:31:00,
2013-01-26 04:36:00,8.0,4.9,30.03,NW,321,0.0,2.0,87,0.00,,,0.00,LWC V2.10 B1813,2013-01-26 09:36:00,
2013-01-26 04:41:00,8.0,4.7,30.03,NW,321,0.0,1.0,86,0.00,,,0.00,LWC V2.10 B1813,2013-01-26 09:41:00,
2013-01-26 04:46:00,8.0,4.7,30.03,NW,320,0.0,0.0,86,0.00,,,0.00,LWC V2.10 B1813,2013-01-26 09:46:00,
2013-01-26 04:51:00,7.8,4.5,30.03,NW,321,0.0,0.0,86,0.00,,,0.00,LWC V2.10 B1813,2013-01-26 09:51:00,
2013-01-26 04:56:00,7.3,4.0,30.03,NW,320,0.0,0.0,86,0.00,,,0.00,LWC V2.10 B1813,2013-01-26 09:56:00,
2013-01-26 05:01:00,7.2,4.2,30.03,WSW,258,1.0,1.0,87,0.00,,,0.00,LWC V2.10 B1813,2013-01-26 10:01:00,
2013-01-26 05:06:00,7.3,4.5,30.04,WNW,286,0.0,1.0,88,0.00,,,0.00,LWC V2.10 B1813,2013-01-26 10:06:00,
2013-01-26 05:11:00,7.5,4.5,30.04,NW,321,1.0,1.0,87,0.00,,,0.00,LWC V2.10 B1813,2013-01-26 10:11:00,
2013-01-26 05:16:00,7.8,4.5,30.04,NNW,328,3.0,3.0,86,0.00,,,0.00,LWC V2.10 B1813,2013-01-26 10:16:00,
2013-01-26 05:21:00,8.1,4.8,30.04,WNW,294,2.0,3.0,86,0.00,,,0.00,LWC V2.10 B1813,2013-01-26 10:21:00,
2013-01-26 05:26:00,8.2,4.6,30.04,NW,315,4.0,5.0,85,0.00,,,0.00,LWC V2.10 B1813,2013-01-26 10:26:00,
2013-01-26 05:31:00,8.3,4.5,30.04,NW,304,0.0,2.0,84,0.00,,,0.00,LWC V2.10 B1813,2013-01-26 10:31:00,
2013-01-26 05:36:00,8.1,4.3,30.05,NW,305,0.0,1.0,84,0.00,,,0.00,LWC V2.10 B1813,2013-01-26 10:36:00,
2013-01-26 05:41:00,7.9,4.1,30.04,WNW,301,0.0,0.0,84,0.00,,,0.00,LWC V2.10 B1813,2013-01-26 10:41:00,
2013-01-26 05:46:00,7.8,4.0,30.05,NW,321,0.0,2.0,84,0.00,,,0.00,LWC V2.10 B1813,2013-01-26 10:46:00,
2013-01-26 05:51:00,7.9,4.1,30.05,NNW,334,3.0,5.0,84,0.00,,,0.00,LWC V2.10 B1813,2013-01-26 10:51:00,
2013-01-26 05:56:00,8.0,3.9,30.05,NW,321,1.0,2.0,83,0.00,,,0.00,LWC V2.10 B1813,2013-01-26 10:56:00,
2013-01-26 06:01:00,8.1,4.0,30.05,NNW,334,0.0,3.0,83,0.00,,,0.00,LWC V2.10 B1813,2013-01-26 11:01:00,
2013-01-26 06:06:00,8.0,3.7,30.05,NW,314,1.0,2.0,82,0.00,,,0.00,LWC V2.10 B1813,2013-01-26 11:06:00,
2013-01-26 06:11:00,7.9,3.6,30.05,WNW,291,2.0,2.0,82,0.00,,,0.00,LWC V2.10 B1813,2013-01-26 11:11:00,
2013-01-26 06:16:00,7.9,3.8,30.06,NNW,331,2.0,3.0,83,0.00,,,0.00,LWC V2.10 B1813,2013-01-26 11:16:00,
2013-01-26 06:21:00,7.8,3.5,30.06,NNW,348,2.0,2.0,82,0.00,,,0.00,LWC V2.10 B1813,2013-01-26 11:21:00,
2013-01-26 06:26:00,7.8,3.7,30.06,NNW,330,0.0,0.0,83,0.00,,,0.00,LWC V2.10 B1813,2013-01-26 11:26:00,
2013-01-26 06:31:00,7.7,3.6,30.06,NNW,336,1.0,3.0,83,0.00,,,0.00,LWC V2.10 B1813,2013-01-26 11:31:00,
2013-01-26 06:36:00,7.7,3.6,30.06,WNW,298,1.0,2.0,83,0.00,,,0.00,LWC V2.10 B1813,2013-01-26 11:36:00,
2013-01-26 06:41:00,7.7,3.6,30.06,NNW,334,0.0,2.0,83,0.00,,,0.00,LWC V2.10 B1813,2013-01-26 11:41:00,
2013-01-26 06:46:00,7.6,3.5,30.07,WNW,284,1.0,3.0,83,0.00,,,0.00,LWC V2.10 B1813,2013-01-26 11:46:00,
2013-01-26 06:51:00,7.4,3.3,30.07,WNW,288,0.0,2.0,83,0.00,,,0.00,LWC V2.10 B1813,2013-01-26 11:51:00,
2013-01-26 06:56:00,7.3,3.5,30.07,WNW,297,1.0,1.0,84,0.00,,,0.00,LWC V2.10 B1813,2013-01-26 11:56:00,
2013-01-26 07:01:00,7.3,3.5,30.07,WNW,286,1.0,1.0,84,0.00,,,0.00,LWC V2.10 B1813,2013-01-26 12:01:00,
2013-01-26 07:06:00,7.2,3.4,30.07,WNW,287,0.0,1.0,84,0.00,,,0.00,LWC V2.10 B1813,2013-01-26 12:06:00,
2013-01-26 07:11:00,7.1,3.3,30.07,WNW,297,1.0,1.0,84,0.00,,,0.00,LWC V2.10 B1813,2013-01-26 12:11:00,
2013-01-26 07:16:00,7.0,3.2,30.07,NW,311,0.0,0.0,84,0.00,,,0.00,LWC V2.10 B1813,2013-01-26 12:16:00,
2013-01-26 07:21:00,6.9,3.4,30.07,NW,314,0.0,0.0,85,0.00,,,0.00,LWC V2.10 B1813,2013-01-26 12:21:00,
2013-01-26 07:26:00,7.0,3.5,30.07,NW,320,0.0,3.0,85,0.00,,,0.00,LWC V2.10 B1813,2013-01-26 12:26:00,
2013-01-26 07:31:00,7.3,3.5,30.07,NW,321,1.0,2.0,84,0.00,,,0.00,LWC V2.10 B1813,2013-01-26 12:31:00,
2013-01-26 07:36:00,7.6,3.8,30.07,West,272,2.0,2.0,84,0.00,,,0.00,LWC V2.10 B1813,2013-01-26 12:36:00,
2013-01-26 07:41:00,7.7,3.6,30.08,NW,314,0.0,1.0,83,0.00,,,0.00,LWC V2.10 B1813,2013-01-26 12:41:00,
2013-01-26 07:46:00,8.1,3.8,30.08,WNW,290,1.0,2.0,82,0.00,,,0.00,LWC V2.10 B1813,2013-01-26 12:46:00,
2013-01-26 07:51:00,8.3,4.0,30.08,NW,318,0.0,2.0,82,0.00,,,0.00,LWC V2.10 B1813,2013-01-26 12:51:00,
2013-01-26 07:56:00,8.5,3.9,30.08,North,350,1.0,2.0,81,0.00,,,0.00,LWC V2.10 B1813,2013-01-26 12:56:00,
2013-01-26 08:01:00,8.9,4.3,30.08,NW,320,0.0,1.0,81,0.00,,,0.00,LWC V2.10 B1813,2013-01-26 13:01:00,
2013-01-26 08:06:00,9.4,4.5,30.08,NW,320,0.0,0.0,80,0.00,,,0.00,LWC V2.10 B1813,2013-01-26 13:06:00,
2013-01-26 08:11:00,9.7,4.5,30.08,NNW,341,3.0,4.0,79,0.00,,,0.00,LWC V2.10 B1813,2013-01-26 13:11:00,
2013-01-26 08:16:00,9.8,4.3,30.09,North,9,2.0,4.0,78,0.00,,,0.00,LWC V2.10 B1813,2013-01-26 13:16:00,
2013-01-26 08:21:00,10.0,4.5,30.09,North,359,1.0,5.0,78,0.00,,,0.00,LWC V2.10 B1813,2013-01-26 13:21:00,
2013-01-26 08:26:00,10.2,4.5,30.09,NNE,18,3.0,4.0,77,0.00,,,0.00,LWC V2.10 B1813,2013-01-26 13:26:00,
2013-01-26 08:31:00,10.1,4.1,30.09,North,353,6.0,9.0,76,0.00,,,0.00,LWC V2.10 B1813,2013-01-26 13:31:00,
2013-01-26 08:36:00,10.1,4.1,30.09,NNW,339,3.0,4.0,76,0.00,,,0.00,LWC V2.10 B1813,2013-01-26 13:36:00,
2013-01-26 08:41:00,10.4,4.4,30.09,WNW,300,3.0,4.0,76,0.00,,,0.00,LWC V2.10 B1813,2013-01-26 13:41:00,
2013-01-26 08:46:00,10.7,4.7,30.10,NNE,33,2.0,8.0,76,0.00,,,0.00,LWC V2.10 B1813,2013-01-26 13:46:00,
2013-01-26 08:51:00,10.7,4.4,30.10,NW,309,3.0,4.0,75,0.00,,,0.00,LWC V2.10 B1813,2013-01-26 13:51:00,
2013-01-26 08:56:00,10.7,4.1,30.10,NE,51,1.0,6.0,74,0.00,,,0.00,LWC V2.10 B1813,2013-01-26 13:56:00,
2013-01-26 09:01:00,10.9,4.6,30.10,NNW,328,3.0,4.0,75,0.00,,,0.00,LWC V2.10 B1813,2013-01-26 14:01:00,
2013-01-26 09:06:00,11.1,4.5,30.10,NW,318,3.0,8.0,74,0.00,,,0.00,LWC V2.10 B1813,2013-01-26 14:06:00,
2013-01-26 09:11:00,11.3,4.4,30.10,NW,325,4.0,10.0,73,0.00,,,0.00,LWC V2.10 B1813,2013-01-26 14:11:00,
2013-01-26 09:16:00,11.5,4.3,30.10,NNW,327,4.0,5.0,72,0.00,,,0.00,LWC V2.10 B1813,2013-01-26 14:16:00,
2013-01-26 09:21:00,11.8,4.5,30.10,NNE,18,9.0,9.0,72,0.00,,,0.00,LWC V2.10 B1813,2013-01-26 14:21:00,
2013-01-26 09:26:00,12.0,4.4,30.11,NE,47,7.0,7.0,71,0.00,,,0.00,LWC V2.10 B1813,2013-01-26 14:26:00,
2013-01-26 09:31:00,12.1,3.9,30.10,NNW,331,2.0,10.0,69,0.00,,,0.00,LWC V2.10 B1813,2013-01-26 14:31:00,
2013-01-26 09:36:00,12.3,3.8,30.10,NNW,339,4.0,7.0,68,0.00,,,0.00,LWC V2.10 B1813,2013-01-26 14:36:00,
2013-01-26 09:41:00,12.5,4.3,30.10,North,7,3.0,10.0,69,0.00,,,0.00,LWC V2.10 B1813,2013-01-26 14:41:00,
2013-01-26 09:46:00,12.7,3.5,30.10,NNE,33,5.0,9.0,66,0.00,,,0.00,LWC V2.10 B1813,2013-01-26 14:46:00,
2013-01-26 09:51:00,13.2,4.3,30.10,NNE,13,1.0,8.0,67,0.00,,,0.00,LWC V2.10 B1813,2013-01-26 14:51:00,
2013-01-26 09:56:00,13.5,4.0,30.10,NNW,336,6.0,7.0,65,0.00,,,0.00,LWC V2.10 B1813,2013-01-26 14:56:00,
2013-01-26 10:01:00,13.5,2.9,30.10,NNW,348,6.0,8.0,62,0.00,,,0.00,LWC V2.10 B1813,2013-01-26 15:01:00,
2013-01-26 10:06:00,13.7,2.4,30.10,WNW,293,6.0,11.0,60,0.00,,,0.00,LWC V2.10 B1813,2013-01-26 15:06:00,
2013-01-26 10:11:00,13.8,2.5,30.10,West,272,5.0,7.0,60,0.00,,,0.00,LWC V2.10 B1813,2013-01-26 15:11:00,
2013-01-26 10:16:00,13.8,1.4,30.10,North,352,2.0,15.0,57,0.00,,,0.00,LWC V2.10 B1813,2013-01-26 15:16:00,
2013-01-26 10:21:00,14.0,2.0,30.10,NE,55,5.0,6.0,58,0.00,,,0.00,LWC V2.10 B1813,2013-01-26 15:21:00,
2013-01-26 10:26:00,14.2,2.2,30.10,NE,41,8.0,10.0,58,0.00,,,0.00,LWC V2.10 B1813,2013-01-26 15:26:00,
2013-01-26 10:31:00,14.3,1.5,30.10,NW,318,11.0,11.0,56,0.00,,,0.00,LWC V2.10 B1813,2013-01-26 15:31:00,
2013-01-26 10:36:00,14.4,1.6,30.10,NNW,348,4.0,11.0,56,0.00,,,0.00,LWC V2.10 B1813,2013-01-26 15:36:00,
2013-01-26 10:41:00,14.6,2.2,30.10,North,3,10.0,12.0,57,0.00,,,0.00,LWC V2.10 B1813,2013-01-26 15:41:00,
2013-01-26 10:46:00,14.7,1.5,30.10,ENE,57,2.0,12.0,55,0.00,,,0.00,LWC V2.10 B1813,2013-01-26 15:46:00,
2013-01-26 10:51:00,15.0,1.8,30.10,NE,38,2.0,4.0,55,0.00,,,0.00,LWC V2.10 B1813,2013-01-26 15:51:00,
2013-01-26 10:56:00,15.2,1.2,30.10,NE,55,3.0,5.0,53,0.00,,,0.00,LWC V2.10 B1813,2013-01-26 15:56:00,
2013-01-26 11:01:00,15.5,1.1,30.09,North,7,5.0,7.0,52,0.00,,,0.00,LWC V2.10 B1813,2013-01-26 16:01:00,
2013-01-26 11:06:00,15.7,1.2,30.09,NE,45,2.0,9.0,52,0.00,,,0.00,LWC V2.10 B1813,2013-01-26 16:06:00,
2013-01-26 11:11:00,15.7,2.0,30.09,NNE,28,4.0,5.0,54,0.00,,,0.00,LWC V2.10 B1813,2013-01-26 16:11:00,
2013-01-26 11:16:00,16.0,2.3,30.09,WNW,298,2.0,7.0,54,0.00,,,0.00,LWC V2.10 B1813,2013-01-26 16:16:00,
2013-01-26 11:21:00,16.3,1.4,30.09,WNW,297,1.0,6.0,51,0.00,,,0.00,LWC V2.10 B1813,2013-01-26 16:21:00,
2013-01-26 11:26:00,16.6,0.8,30.09,NNW,348,7.0,8.0,49,0.00,,,0.00,LWC V2.10 B1813,2013-01-26 16:26:00,
2013-01-26 11:31:00,16.6,1.2,30.08,NE,53,1.0,5.0,50,0.00,,,0.00,LWC V2.10 B1813,2013-01-26 16:31:00,
2013-01-26 11:36:00,16.7,0.9,30.08,East,101,6.0,9.0,49,0.00,,,0.00,LWC V2.10 B1813,2013-01-26 16:36:00,
2013-01-26 11:41:00,16.6,0.4,30.08,North,2,4.0,4.0,48,0.00,,,0.00,LWC V2.10 B1813,2013-01-26 16:41:00,
2013-01-26 11:46:00,17.3,0.6,30.08,North,5,9.0,11.0,47,0.00,,,0.00,LWC V2.10 B1813,2013-01-26 16:46:00,
2013-01-26 11:51:00,17.1,-0.1,30.08,ENE,60,6.0,8.0,46,0.00,,,0.00,LWC V2.10 B1813,2013-01-26 16:51:00,
2013-01-26 11:56:00,17.3,0.1,30.08,NNW,334,0.0,8.0,46,0.00,,,0.00,LWC V2.10 B1813,2013-01-26 16:56:00,
2013-01-26 12:01:00,17.4,0.2,30.07,West,276,3.0,6.0,46,0.00,,,0.00,LWC V2.10 B1813,2013-01-26 17:01:00,
2013-01-26 12:06:00,17.6,-0.1,30.07,WNW,303,12.0,12.0,45,0.00,,,0.00,LWC V2.10 B1813,2013-01-26 17:06:00,
2013-01-26 12:11:00,17.4,-1.7,30.07,NNE,12,5.0,9.0,42,0.00,,,0.00,LWC V2.10 B1813,2013-01-26 17:11:00,
2013-01-26 12:16:00,17.8,-0.9,30.07,NE,40,5.0,9.0,43,0.00,,,0.00,LWC V2.10 B1813,2013-01-26 17:16:00,
2013-01-26 12:21:00,17.9,-0.8,30.07,North,353,3.0,7.0,43,0.00,,,0.00,LWC V2.10 B1813,2013-01-26 17:21:00,
2013-01-26 12:26:00,18.0,-1.7,30.07,NW,310,8.0,9.0,41,0.00,,,0.00,LWC V2.10 B1813,2013-01-26 17:26:00,
2013-01-26 12:31:00,18.1,-1.6,30.07,NW,314,5.0,10.0,41,0.00,,,0.00,LWC V2.10 B1813,2013-01-26 17:31:00,
2013-01-26 12:36:00,18.3,-0.9,30.07,NW,304,4.0,10.0,42,0.00,,,0.00,LWC V2.10 B1813,2013-01-26 17:36:00,
2013-01-26 12:41:00,18.6,-0.6,30.07,NNW,348,6.0,13.0,42,0.00,,,0.00,LWC V2.10 B1813,2013-01-26 17:41:00,
2013-01-26 12:46:00,19.0,-0.3,30.07,NNE,24,7.0,12.0,42,0.00,,,0.00,LWC V2.10 B1813,2013-01-26 17:46:00,
2013-01-26 12:51:00,19.0,-0.3,30.07,North,356,8.0,10.0,42,0.00,,,0.00,LWC V2.10 B1813,2013-01-26 17:51:00,
2013-01-26 12:56:00,18.9,-0.9,30.06,WNW,303,3.0,4.0,41,0.00,,,0.00,LWC V2.10 B1813,2013-01-26 17:56:00,
2013-01-26 13:01:00,19.3,-1.0,30.06,NNW,345,2.0,6.0,40,0.00,,,0.00,LWC V2.10 B1813,2013-01-26 18:01:00,
2013-01-26 13:06:00,19.3,-0.5,30.06,NNW,336,8.0,8.0,41,0.00,,,0.00,LWC V2.10 B1813,2013-01-26 18:06:00,
2013-01-26 13:11:00,19.0,-1.3,30.06,ENE,64,8.0,12.0,40,0.00,,,0.00,LWC V2.10 B1813,2013-01-26 18:11:00,
2013-01-26 13:16:00,19.2,-0.6,30.06,NNW,348,5.0,6.0,41,0.00,,,0.00,LWC V2.10 B1813,2013-01-26 18:16:00,
2013-01-26 13:21:00,19.5,-0.3,30.06,NE,46,3.0,7.0,41,0.00,,,0.00,LWC V2.10 B1813,2013-01-26 18:21:00,
2013-01-26 13:26:00,19.7,-0.1,30.07,WNW,298,8.0,9.0,41,0.00,,,0.00,LWC V2.10 B1813,2013-01-26 18:26:00,
2013-01-26 13:31:00,19.4,-1.5,30.06,NNE,20,7.0,8.0,39,0.00,,,0.00,LWC V2.10 B1813,2013-01-26 18:31:00,
2013-01-26 13:36:00,19.4,-1.5,30.06,East,94,0.0,8.0,39,0.00,,,0.00,LWC V2.10 B1813,2013-01-26 18:36:00,
2013-01-26 13:41:00,19.6,-1.3,30.06,WNW,291,3.0,9.0,39,0.00,,,0.00,LWC V2.10 B1813,2013-01-26 18:41:00,
2013-01-26 13:46:00,19.4,-2.0,30.06,NW,325,6.0,7.0,38,0.00,,,0.00,LWC V2.10 B1813,2013-01-26 18:46:00,
2013-01-26 13:51:00,19.9,-0.5,30.06,NNW,343,2.0,2.0,40,0.00,,,0.00,LWC V2.10 B1813,2013-01-26 18:51:00,
2013-01-26 13:56:00,19.9,-1.6,30.06,NE,46,6.0,7.0,38,0.00,,,0.00,LWC V2.10 B1813,2013-01-26 18:56:00,
2013-01-26 14:01:00,20.0,-2.0,30.06,NNW,329,2.0,10.0,37,0.00,,,0.00,LWC V2.10 B1813,2013-01-26 19:01:00,
2013-01-26 14:06:00,19.9,-2.7,30.06,NNW,332,3.0,12.0,36,0.00,,,0.00,LWC V2.10 B1813,2013-01-26 19:06:00,
2013-01-26 14:11:00,20.0,-1.5,30.07,ENE,69,4.0,8.0,38,0.00,,,0.00,LWC V2.10 B1813,2013-01-26 19:11:00,
2013-01-26 14:16:00,20.0,-2.6,30.07,WNW,293,10.0,15.0,36,0.00,,,0.00,LWC V2.10 B1813,2013-01-26 19:16:00,
2013-01-26 14:21:00,19.7,-2.9,30.07,NW,315,2.0,10.0,36,0.00,,,0.00,LWC V2.10 B1813,2013-01-26 19:21:00,
2013-01-26 14:26:00,19.4,-3.7,30.08,SW,234,1.0,16.0,35,0.00,,,0.00,LWC V2.10 B1813,2013-01-26 19:26:00,
2013-01-26 14:31:00,18.9,-4.8,30.08,WNW,289,7.0,11.0,34,0.00,,,0.00,LWC V2.10 B1813,2013-01-26 19:31:00,
2013-01-26 14:36:00,19.0,-3.5,30.09,West,275,4.0,12.0,36,0.00,,,0.00,LWC V2.10 B1813,2013-01-26 19:36:00,
2013-01-26 14:41:00,19.1,-4.6,30.09,NNW,344,7.0,11.0,34,0.00,,,0.00,LWC V2.10 B1813,2013-01-26 19:41:00,
2013-01-26 14:46:00,18.9,-4.8,30.09,WNW,296,5.0,7.0,34,0.00,,,0.00,LWC V2.10 B1813,2013-01-26 19:46:00,
2013-01-26 14:51:00,19.0,-4.1,30.09,NW,325,5.0,8.0,35,0.00,,,0.00,LWC V2.10 B1813,2013-01-26 19:51:00,
2013-01-26 14:56:00,18.7,-5.6,30.09,NNW,332,10.0,14.0,33,0.00,,,0.00,LWC V2.10 B1813,2013-01-26 19:56:00,
2013-01-26 15:01:00,18.6,-5.7,30.10,NW,320,7.0,8.0,33,0.00,,,0.00,LWC V2.10 B1813,2013-01-26 20:01:00,
2013-01-26 15:06:00,18.7,-5.6,30.10,NNE,32,2.0,7.0,33,0.00,,,0.00,LWC V2.10 B1813,2013-01-26 20:06:00,
2013-01-26 15:11:00,18.4,-6.5,30.10,NE,40,2.0,15.0,32,0.00,,,0.00,LWC V2.10 B1813,2013-01-26 20:11:00,
2013-01-26 15:16:00,18.2,-5.4,30.11,NE,40,5.0,5.0,34,0.00,,,0.00,LWC V2.10 B1813,2013-01-26 20:16:00,
2013-01-26 15:21:00,17.9,-6.9,30.11,NE,40,4.0,14.0,32,0.00,,,0.00,LWC V2.10 B1813,2013-01-26 20:21:00,
2013-01-26 15:26:00,17.6,-7.2,30.11,North,9,15.0,16.0,32,0.00,,,0.00,LWC V2.10 B1813,2013-01-26 20:26:00,
2013-01-26 15:31:00,17.5,-7.3,30.11,ENE,69,5.0,21.0,32,0.00,,,0.00,LWC V2.10 B1813,2013-01-26 20:31:00,
2013-01-26 15:36:00,17.4,-6.1,30.11,WNW,297,9.0,14.0,34,0.00,,,0.00,LWC V2.10 B1813,2013-01-26 20:36:00,
2013-01-26 15:41:00,17.3,-6.2,30.11,NW,320,11.0,13.0,34,0.00,,,0.00,LWC V2.10 B1813,2013-01-26 20:41:00,
2013-01-26 15:46:00,17.3,-6.8,30.12,NNW,331,2.0,16.0,33,0.00,,,0.00,LWC V2.10 B1813,2013-01-26 20:46:00,
2013-01-26 15:51:00,17.1,-6.4,30.12,North,350,7.0,10.0,34,0.00,,,0.00,LWC V2.10 B1813,2013-01-26 20:51:00,
2013-01-26 15:56:00,16.8,-6.6,30.13,NW,313,9.0,15.0,34,0.00,,,0.00,LWC V2.10 B1813,2013-01-26 20:56:00,
2013-01-26 16:01:00,16.6,-5.7,30.13,NNW,334,3.0,7.0,36,0.00,,,0.00,LWC V2.10 B1813,2013-01-26 21:01:00,
2013-01-26 16:06:00,16.5,-6.3,30.13,WNW,286,4.0,14.0,35,0.00,,,0.00,LWC V2.10 B1813,2013-01-26 21:06:00,
2013-01-26 16:11:00,16.4,-5.8,30.13,NW,304,5.0,14.0,36,0.00,,,0.00,LWC V2.10 B1813,2013-01-26 21:11:00,
2013-01-26 16:16:00,16.3,-5.9,30.14,West,281,8.0,12.0,36,0.00,,,0.00,LWC V2.10 B1813,2013-01-26 21:16:00,
2013-01-26 16:21:00,16.2,-6.0,30.14,NW,317,5.0,13.0,36,0.00,,,0.00,LWC V2.10 B1813,2013-01-26 21:21:00,
2013-01-26 16:26:00,16.1,-5.5,30.14,NW,313,7.0,9.0,37,0.00,,,0.00,LWC V2.10 B1813,2013-01-26 21:26:00,
2013-01-26 16:31:00,15.9,-5.2,30.14,NNW,328,3.0,7.0,38,0.00,,,0.00,LWC V2.10 B1813,2013-01-26 21:31:00,
2013-01-26 16:36:00,15.8,-4.7,30.14,North,4,5.0,7.0,39,0.00,,,0.00,LWC V2.10 B1813,2013-01-26 21:36:00,
2013-01-26 16:41:00,15.7,-4.8,30.14,NE,35,2.0,5.0,39,0.00,,,0.00,LWC V2.10 B1813,2013-01-26 21:41:00,
2013-01-26 16:46:00,15.7,-3.8,30.15,NNW,331,2.0,6.0,41,0.00,,,0.00,LWC V2.10 B1813,2013-01-26 21:46:00,
2013-01-26 16:51:00,15.6,-3.9,30.15,NNW,339,5.0,7.0,41,0.00,,,0.00,LWC V2.10 B1813,2013-01-26 21:51:00,
2013-01-26 16:56:00,15.5,-3.5,30.15,NNW,336,3.0,6.0,42,0.00,,,0.00,LWC V2.10 B1813,2013-01-26 21:56:00,
2013-01-26 17:01:00,15.4,-3.1,30.15,West,266,0.0,4.0,43,0.00,,,0.00,LWC V2.10 B1813,2013-01-26 22:01:00,
2013-01-26 17:06:00,15.2,-3.2,30.15,NNW,343,4.0,10.0,43,0.00,,,0.00,LWC V2.10 B1813,2013-01-26 22:06:00,
2013-01-26 17:11:00,15.2,-2.8,30.15,North,4,3.0,7.0,44,0.00,,,0.00,LWC V2.10 B1813,2013-01-26 22:11:00,
2013-01-26 17:16:00,15.1,-2.4,30.15,North,355,1.0,6.0,45,0.00,,,0.00,LWC V2.10 B1813,2013-01-26 22:16:00,
2013-01-26 17:21:00,14.9,-2.6,30.16,ENE,58,3.0,4.0,45,0.00,,,0.00,LWC V2.10 B1813,2013-01-26 22:21:00,
2013-01-26 17:26:00,14.8,-2.2,30.16,NW,325,2.0,6.0,46,0.00,,,0.00,LWC V2.10 B1813,2013-01-26 22:26:00,
2013-01-26 17:31:00,14.7,-1.8,30.16,NW,313,2.0,6.0,47,0.00,,,0.00,LWC V2.10 B1813,2013-01-26 22:31:00,
2013-01-26 17:36:00,14.6,-1.9,30.16,NNW,334,4.0,5.0,47,0.00,,,0.00,LWC V2.10 B1813,2013-01-26 22:36:00,
2013-01-26 17:41:00,14.5,-2.0,30.16,NW,313,2.0,5.0,47,0.00,,,0.00,LWC V2.10 B1813,2013-01-26 22:41:00,
2013-01-26 17:46:00,14.5,-2.0,30.16,NNW,341,3.0,10.0,47,0.00,,,0.00,LWC V2.10 B1813,2013-01-26 22:46:00,
2013-01-26 17:51:00,14.4,-2.1,30.17,ENE,69,1.0,6.0,47,0.00,,,0.00,LWC V2.10 B1813,2013-01-26 22:51:00,
2013-01-26 17:56:00,14.5,-2.0,30.17,North,353,11.0,12.0,47,0.00,,,0.00,LWC V2.10 B1813,2013-01-26 22:56:00,
2013-01-26 18:01:00,14.6,-1.5,30.17,North,354,3.0,6.0,48,0.00,,,0.00,LWC V2.10 B1813,2013-01-26 23:01:00,
2013-01-26 18:06:00,14.5,-1.6,30.17,NW,321,3.0,11.0,48,0.00,,,0.00,LWC V2.10 B1813,2013-01-26 23:06:00,
2013-01-26 18:11:00,14.4,-1.2,30.18,NW,322,4.0,6.0,49,0.00,,,0.00,LWC V2.10 B1813,2013-01-26 23:11:00,
2013-01-26 18:16:00,14.3,-1.3,30.18,NE,35,4.0,7.0,49,0.00,,,0.00,LWC V2.10 B1813,2013-01-26 23:16:00,
2013-01-26 18:21:00,14.3,-1.3,30.18,North,6,4.0,7.0,49,0.00,,,0.00,LWC V2.10 B1813,2013-01-26 23:21:00,
2013-01-26 18:26:00,14.1,-1.5,30.18,North,5,4.0,8.0,49,0.00,,,0.00,LWC V2.10 B1813,2013-01-26 23:26:00,
2013-01-26 18:31:00,14.0,-1.6,30.18,NNE,28,4.0,11.0,49,0.00,,,0.00,LWC V2.10 B1813,2013-01-26 23:31:00,
2013-01-26 18:36:00,13.9,-1.7,30.18,North,352,1.0,10.0,49,0.00,,,0.00,LWC V2.10 B1813,2013-01-26 23:36:00,
2013-01-26 18:41:00,13.7,-1.5,30.19,North,358,4.0,7.0,50,0.00,,,0.00,LWC V2.10 B1813,2013-01-26 23:41:00,
2013-01-26 18:46:00,13.6,-1.1,30.19,NNW,334,4.0,7.0,51,0.00,,,0.00,LWC V2.10 B1813,2013-01-26 23:46:00,
2013-01-26 18:51:00,13.6,-1.5,30.19,NNW,346,2.0,7.0,50,0.00,,,0.00,LWC V2.10 B1813,2013-01-26 23:51:00,
2013-01-26 18:56:00,13.3,-1.4,30.19,NW,320,5.0,6.0,51,0.00,,,0.00,LWC V2.10 B1813,2013-01-26 23:56:00,
2013-01-26 19:01:00,13.3,-1.4,30.19,NW,317,4.0,5.0,51,0.00,,,0.00,LWC V2.10 B1813,2013-01-27 00:01:00,
2013-01-26 19:06:00,13.2,-1.5,30.19,NNW,328,4.0,7.0,51,0.00,,,0.00,LWC V2.10 B1813,2013-01-27 00:06:00,
2013-01-26 19:11:00,13.1,-1.2,30.20,WNW,298,2.0,5.0,52,0.00,,,0.00,LWC V2.10 B1813,2013-01-27 00:11:00,
2013-01-26 19:16:00,12.9,-1.4,30.20,NNW,342,2.0,5.0,52,0.00,,,0.00,LWC V2.10 B1813,2013-01-27 00:16:00,
2013-01-26 19:21:00,12.7,-1.2,30.20,NNW,341,1.0,3.0,53,0.00,,,0.00,LWC V2.10 B1813,2013-01-27 00:21:00,
2013-01-26 19:26:00,12.5,-0.9,30.20,North,354,6.0,6.0,54,0.00,,,0.00,LWC V2.10 B1813,2013-01-27 00:26:00,
2013-01-26 19:31:00,12.4,-1.0,30.20,NW,305,1.0,3.0,54,0.00,,,0.00,LWC V2.10 B1813,2013-01-27 00:31:00,
2013-01-26 19:36:00,12.4,-1.4,30.20,NW,318,1.0,2.0,53,0.00,,,0.00,LWC V2.10 B1813,2013-01-27 00:36:00,
2013-01-26 19:41:00,12.4,-1.4,30.21,WNW,282,1.0,1.0,53,0.00,,,0.00,LWC V2.10 B1813,2013-01-27 00:41:00,
2013-01-26 19:46:00,12.1,-1.3,30.21,WNW,293,0.0,1.0,54,0.00,,,0.00,LWC V2.10 B1813,2013-01-27 00:46:00,
2013-01-26 19:51:00,11.7,-1.3,30.21,WNW,303,1.0,2.0,55,0.00,,,0.00,LWC V2.10 B1813,2013-01-27 00:51:00,
2013-01-26 19:56:00,11.5,-1.1,30.21,West,272,1.0,3.0,56,0.00,,,0.00,LWC V2.10 B1813,2013-01-27 00:56:00,
2013-01-26 20:01:00,11.3,-0.9,30.21,West,262,1.0,1.0,57,0.00,,,0.00,LWC V2.10 B1813,2013-01-27 01:01:00,
2013-01-26 20:06:00,10.9,-0.9,30.21,WNW,288,1.0,2.0,58,0.00,,,0.00,LWC V2.10 B1813,2013-01-27 01:06:00,
2013-01-26 20:11:00,10.7,-0.8,30.21,WNW,296,1.0,2.0,59,0.00,,,0.00,LWC V2.10 B1813,2013-01-27 01:11:00,
2013-01-26 20:16:00,10.7,-1.1,30.21,West,265,4.0,4.0,58,0.00,,,0.00,LWC V2.10 B1813,2013-01-27 01:16:00,
2013-01-26 20:21:00,11.0,-0.8,30.21,WNW,293,5.0,6.0,58,0.00,,,0.00,LWC V2.10 B1813,2013-01-27 01:21:00,
2013-01-26 20:26:00,11.1,-1.1,30.21,NW,317,6.0,6.0,57,0.00,,,0.00,LWC V2.10 B1813,2013-01-27 01:26:00,
2013-01-26 20:31:00,11.3,-0.9,30.21,West,277,1.0,3.0,57,0.00,,,0.00,LWC V2.10 B1813,2013-01-27 01:31:00,
2013-01-26 20:36:00,10.8,-0.7,30.21,WNW,293,0.0,1.0,59,0.00,,,0.00,LWC V2.10 B1813,2013-01-27 01:36:00,
2013-01-26 20:41:00,10.5,-0.6,30.21,WNW,293,1.0,1.0,60,0.00,,,0.00,LWC V2.10 B1813,2013-01-27 01:41:00,
2013-01-26 20:46:00,10.1,-0.6,30.21,NNW,327,2.0,2.0,61,0.00,,,0.00,LWC V2.10 B1813,2013-01-27 01:46:00,
2013-01-26 20:51:00,9.8,-0.6,30.22,WNW,293,1.0,1.0,62,0.00,,,0.00,LWC V2.10 B1813,2013-01-27 01:51:00,
2013-01-26 20:56:00,9.5,-0.5,30.22,West,275,1.0,1.0,63,0.00,,,0.00,LWC V2.10 B1813,2013-01-27 01:56:00,
2013-01-26 21:01:00,9.5,-0.5,30.22,WNW,303,1.0,4.0,63,0.00,,,0.00,LWC V2.10 B1813,2013-01-27 02:01:00,
2013-01-26 21:06:00,9.8,-0.6,30.21,West,277,1.0,3.0,62,0.00,,,0.00,LWC V2.10 B1813,2013-01-27 02:06:00,
2013-01-26 21:11:00,9.8,-0.6,30.22,NW,308,1.0,3.0,62,0.00,,,0.00,LWC V2.10 B1813,2013-01-27 02:11:00,
2013-01-26 21:16:00,10.2,-0.5,30.22,NW,308,1.0,5.0,61,0.00,,,0.00,LWC V2.10 B1813,2013-01-27 02:16:00,
2013-01-26 21:21:00,10.3,-0.4,30.22,NNW,327,3.0,4.0,61,0.00,,,0.00,LWC V2.10 B1813,2013-01-27 02:21:00,
2013-01-26 21:26:00,10.3,-0.4,30.22,NW,305,1.0,1.0,61,0.00,,,0.00,LWC V2.10 B1813,2013-01-27 02:26:00,
2013-01-26 21:31:00,10.1,-0.3,30.22,NNW,346,3.0,3.0,62,0.00,,,0.00,LWC V2.10 B1813,2013-01-27 02:31:00,
2013-01-26 21:36:00,10.2,-0.2,30.22,WNW,298,1.0,3.0,62,0.00,,,0.00,LWC V2.10 B1813,2013-01-27 02:36:00,
2013-01-26 21:41:00,10.3,-0.1,30.22,NW,317,3.0,5.0,62,0.00,,,0.00,LWC V2.10 B1813,2013-01-27 02:41:00,
2013-01-26 21:46:00,10.5,0.1,30.22,NW,311,1.0,2.0,62,0.00,,,0.00,LWC V2.10 B1813,2013-01-27 02:46:00,
2013-01-26 21:51:00,10.5,-0.3,30.23,NW,313,2.0,4.0,61,0.00,,,0.00,LWC V2.10 B1813,2013-01-27 02:51:00,
2013-01-26 21:56:00,10.6,-0.2,30.23,NW,314,1.0,4.0,61,0.00,,,0.00,LWC V2.10 B1813,2013-01-27 02:56:00,
2013-01-26 22:01:00,10.5,0.1,30.23,West,275,2.0,7.0,62,0.00,,,0.00,LWC V2.10 B1813,2013-01-27 03:01:00,
2013-01-26 22:06:00,10.6,0.2,30.23,WNW,291,3.0,4.0,62,0.00,,,0.00,LWC V2.10 B1813,2013-01-27 03:06:00,
2013-01-26 22:11:00,10.4,0.0,30.24,NW,316,3.0,5.0,62,0.00,,,0.00,LWC V2.10 B1813,2013-01-27 03:11:00,
2013-01-26 22:16:00,10.3,0.2,30.24,NW,313,3.0,7.0,63,0.00,,,0.00,LWC V2.10 B1813,2013-01-27 03:16:00,
2013-01-26 22:21:00,10.4,0.3,30.24,North,350,4.0,8.0,63,0.00,,,0.00,LWC V2.10 B1813,2013-01-27 03:21:00,
2013-01-26 22:26:00,10.5,0.4,30.24,NW,314,1.0,8.0,63,0.00,,,0.00,LWC V2.10 B1813,2013-01-27 03:26:00,
2013-01-26 22:31:00,10.7,0.6,30.24,NNW,341,3.0,4.0,63,0.00,,,0.00,LWC V2.10 B1813,2013-01-27 03:31:00,
2013-01-26 22:36:00,10.9,0.8,30.24,NNW,341,0.0,5.0,63,0.00,,,0.00,LWC V2.10 B1813,2013-01-27 03:36:00,
2013-01-26 22:41:00,10.8,0.7,30.24,North,357,0.0,1.0,63,0.00,,,0.00,LWC V2.10 B1813,2013-01-27 03:41:00,
2013-01-26 22:46:00,10.8,1.1,30.24,North,352,3.0,5.0,64,0.00,,,0.00,LWC V2.10 B1813,2013-01-27 03:46:00,
2013-01-26 22:51:00,10.7,1.0,30.25,NNW,337,4.0,5.0,64,0.00,,,0.00,LWC V2.10 B1813,2013-01-27 03:51:00,
2013-01-26 22:56:00,10.9,1.1,30.25,WNW,293,1.0,4.0,64,0.00,,,0.00,LWC V2.10 B1813,2013-01-27 03:56:00,
2013-01-26 23:01:00,10.7,1.0,30.25,WNW,286,3.0,3.0,64,0.00,,,0.00,LWC V2.10 B1813,2013-01-27 04:01:00,
2013-01-26 23:06:00,10.6,1.2,30.25,NNW,348,4.0,6.0,65,0.00,,,0.00,LWC V2.10 B1813,2013-01-27 04:06:00,
2013-01-26 23:11:00,10.7,1.3,30.25,West,272,3.0,4.0,65,0.00,,,0.00,LWC V2.10 B1813,2013-01-27 04:11:00,
2013-01-26 23:16:00,10.8,1.7,30.25,NNW,336,1.0,2.0,66,0.00,,,0.00,LWC V2.10 B1813,2013-01-27 04:16:00,
2013-01-26 23:21:00,10.7,1.6,30.25,NW,316,2.0,3.0,66,0.00,,,0.00,LWC V2.10 B1813,2013-01-27 04:21:00,
2013-01-26 23:26:00,10.7,1.6,30.25,NW,305,3.0,3.0,66,0.00,,,0.00,LWC V2.10 B1813,2013-01-27 04:26:00,
2013-01-26 23:31:00,10.8,1.7,30.25,NNW,346,1.0,5.0,66,0.00,,,0.00,LWC V2.10 B1813,2013-01-27 04:31:00,
2013-01-26 23:36:00,10.7,1.6,30.25,NNW,334,2.0,4.0,66,0.00,,,0.00,LWC V2.10 B1813,2013-01-27 04:36:00,
2013-01-26 23:41:00,10.5,1.7,30.25,NW,305,0.0,0.0,67,0.00,,,0.00,LWC V2.10 B1813,2013-01-27 04:41:00,
2013-01-26 23:46:00,10.2,1.8,30.25,SE,138,1.0,1.0,68,0.00,,,0.00,LWC V2.10 B1813,2013-01-27 04:46:00,
2013-01-26 23:51:00,9.8,1.7,30.26,South,172,0.0,0.0,69,0.00,,,0.00,LWC V2.10 B1813,2013-01-27 04:51:00,
2013-01-26 23:56:00,9.2,1.7,30.26,South,173,0.0,0.0,71,0.00,,,0.00,LWC V2.10 B1813,2013-01-27 04:56:00,